Regional Weather Roundup
Issued by NWS Charleston, SC

Current Version | Previous Version | Text Only | Print | Product List | Glossary Off
Versions: 1 2 3 4 5 6 7 8 9 10 11 12 13 14 15 16 17 18 19 20 21 22 23 24 25 26 27 28 29 30 31 32 33 34 35 36 37 38 39 40 41 42 43 44 45 46 47 48 49 50

000
ASUS42 KCHS 242212
RWRCHS

REGIONAL WEATHER ROUNDUP
NATIONAL WEATHER SERVICE CHARLESTON SC
600 PM EDT MON APR 24 2017

NOTE: "FAIR" INDICATES FEW OR NO CLOUDS BELOW 12,000 FEET WITH NO
SIGNIFICANT WEATHER AND/OR OBSTRUCTIONS TO VISIBILITY.

NOT ALL STATIONS ARE QUALITY CONTROLLED. USE DATA WITH CAUTION...
ESPECIALLY DEWPOINT OBSERVATIONS.

SCZ027-030-031-034>040-042>050-242300-
...SOUTHEAST SOUTH CAROLINA...

CITY           SKY/WX    TMP DP  RH WIND       PRES   REMARKS
N CHARLESTON   PTSUNNY   71  63  75 NE9       29.58F
WATERFRONT PRK   N/A     75  63  66 VRB3      29.56F
JOHNS ISLAND   MOCLDY    75  55  50 SW9       29.59S
PINOPOLIS        N/A     64  64 100 NE14      29.52F
MONCKS CORNER  CLOUDY    64  63  94 NE10      29.60F
SUMMERVILLE    MOCLDY    68  63  83 NE7       29.59F
BEAUFORT MCAS  MOSUNNY   75  52  44 W10       29.61S
BEAUFORT ARPT  FAIR      77  50  38 W17G24    29.61R
HILTON HEAD IS MOSUNNY   73  50  43 SW13G22   29.63
WALTERBORO     CLOUDY    72  59  64 W15       29.60S
ALLENDALE      MOCLDY    66  61  82 NW8G14    29.63R

...SOUTHERN MIDLANDS AND PEE DEE...

CITY           SKY/WX    TMP DP  RH WIND       PRES   REMARKS
GEORGETOWN     CLOUDY    66  64  94 N8        29.63S
KINGSTREE      LGT RAIN  61  59  94 N6        29.63F
ORANGEBURG     TSTM      63  61  93 N12       29.64R FOG
BARNWELL       CLOUDY    63  61  94 N9        29.65R
AIKEN          CLOUDY    59  54  82 N9        29.70S
MANNING        CLOUDY    63  61  94 E9        29.62F
COLUMBIA       CLOUDY    63  58  83 N9        29.66S
SUMTER         PTSUNNY   64  61  88 NE12      29.63S FOG
FLORENCE       LGT RAIN  60  60 100 NE15      29.66F
MYRTLE BEACH   CLOUDY    66  66 100 N9        29.63F
N MYRTLE BEACH CLOUDY    68  66  93 N5        29.62F

$$

GAZ063-065-086>088-099>101-113>116-118-119-134>141-150-242300-
...SOUTHEAST GEORGIA...

CITY           SKY/WX    TMP DP  RH WIND       PRES   REMARKS
SAVANNAH ARPT  MOSUNNY   75  48  38 W15       29.63S
HUNTER AAF     MOSUNNY   74  55  51 W14       29.61S
FORT STEWART   SUNNY     73  51  44 W14       29.63R
STATESBORO     CLOUDY    68  57  67 NW9       29.66R
SYLVANIA       CLOUDY   N/A N/A N/A W7        29.66R
CLAXTON        MOCLDY    70  56  62 SW8       29.66R

...CSRA...CENTRAL AND FAR SOUTHEAST GEORGIA...

CITY           SKY/WX    TMP DP  RH WIND       PRES   REMARKS
THOMSON        CLOUDY    61  57  88 NW5       29.74S
AUGUSTA-BUSH   CLOUDY    63  56  78 VRB5      29.67R
AUGUSTA-DANIEL CLOUDY    61  52  72 NW9       29.68S
SWAINSBORO     CLOUDY    64  55  72 NW12G17   29.69R
VIDALIA        CLOUDY    68  55  64 NW10G16   29.68R
EASTMAN        CLOUDY    67  47  48 NW12G17   29.73R
HAZLEHURST     MOCLDY    70  56  61 W5        29.68R
ALMA           CLOUDY    67  53  61 W8        29.69R
WAYCROSS       PTSUNNY   71  56  58 W16       29.69S
JESUP          FAIR      72  46  40 W8G20     29.67R
BAXLEY         CLOUDY    68  57  68 W8        29.68R
BRUNSWICK      MOSUNNY   70  55  60 W12G17    29.67S
SAINT SIMONS   PTSUNNY   69  50  50 W15G22    29.66R

$$

SCZ027-028-034-036>038-045-046-048>050-GAZ119-141-242300-
...LAKE AND SUPPLEMENTAL COASTAL OBSERVATIONS...

STATION/POSITION TIME  TEMP    WIND        PRES    WAVE   SWELL
                       AIR SEA DIR/SP/G            HT/PER HT/PER/DIR
                 (UTC) (F)     (DEG/KT/KT) (MB)    (FT/S) (FT/S/D)
WINYAH BAY       2045   67      40/  4     1003.0
LAKE MURRAY      2120   59      20/  4/  8 1004.4
ACE BASIN NERRS  2045   77     250/  5     1002.0
FORT PULASKI     2148   72 75  270/ 10/ 12 1003.4R
SAPELO ISLAND    2100   71     290/ 17     1004.0

$$

ANZ835-935-AMZ111-154-330-350-352-354-370-450-454-472-242300-
...C-MAN AND BUOY OBSERVATIONS...

STATION/POSITION TIME  TEMP    WIND        PRES    WAVE   SWELL
                       AIR SEA DIR/SP/G            HT/PER HT/PER/DIR
                 (UTC) (F)     (DEG/KT/KT) (MB)    (FT/S) (FT/S/D)
BUOY 41004       2150   72 74  240/ 12/ 16 1002.3S   6/ 8   5/140/ 8
BUOY 41008       2150   70 72  280/ 19/ 25 1002.9S   4/ 8   3/ 90/ 8
FOLLY BEACH CMAN 2100   74     200/ 13/ 15 1002.8F
CAPERS NEARSHORE 2108   74 72  210/ 10/ 16 1002.1F
FRIPP NEARSHORE  2108   73 72  270/ 14/ 19 1002.4F


STATION/POSITION TIME  TEMP    WIND        PRES    WAVE   SWELL
                       AIR SEA DIR/SP/G            HT/PER HT/PER/DIR
                 (UTC) (F)     (DEG/KT/KT) (MB)    (FT/S) (FT/S/D)
5E ST. MARYS GA  2130      73                N/A     4/ 8   2/ 80/12
FRYING PAN BUOY  2150   68 75  230/  8/ 12 1002.9R   9/ 8   8/150/ 8
BUOY 41025       2150   74 78  110/ 29/ 37 1006.8F  11/ 8   3/ 30/11
CAPE LOOKOUT NC  2200   67     120/ 28/ 31 1004.9F
BUOY 41002       2150   74 75  140/ 17/ 21 1001.4F  12/ 9   7/140/ 9
BUOY 41010       2150   78 77  230/ 12/ 14 1004.4R   5/ 7   5/110/ 7
ST AUGUSTINE FL  2200   74 75  270/ 12/ 15 1005.2R


$$




USA.gov is the U.S. government's official web portal to all federal, state and local government web resources and services.